Location: Unspecified
(0.0000°N, 0.0000°E)
Time: 06:41:13
(UTC+00:00)

Transit 2A Rocket - All Passes

Search period start: 31 March 2015 00:00
Search period end: 10 April 2015 00:00
Orbit: 585 x 922 km, 66.7° (Epoch: 29 March)

Date Brightness Start Highest point End Pass type
(mag) Time Alt. Az. Time Alt. Az. Time Alt. Az.
31 Mar - 01:10:13 10° SSW 01:15:20 78° ESE 01:20:59 10° NNE night (unlit)
31 Mar - 12:02:04 10° NE 12:04:14 13° ENE 12:06:40 10° E daylight
31 Mar - 13:42:14 10° NW 13:46:56 34° WSW 13:51:11 10° S daylight
01 Apr - 00:28:42 10° S 00:33:23 37° ESE 00:38:32 10° NE night (unlit)
01 Apr - 02:12:57 10° WSW 02:16:06 15° WNW 02:19:01 10° NW night (unlit)
01 Apr - 12:59:47 10° NNW 13:04:59 77° WSW 13:09:42 10° SSE daylight
01 Apr - 23:48:05 10° SSE 23:51:23 18° ESE 23:55:09 10° ENE night (unlit)
02 Apr - 01:29:15 10° SW 01:33:52 30° WNW 01:38:44 10° N night (unlit)
02 Apr - 12:17:58 10° N 12:22:58 47° ENE 12:27:34 10° SE daylight
03 Apr - 00:46:39 10° SSW 00:51:46 63° WNW 00:57:24 10° N night (unlit)
03 Apr - 11:36:55 10° NNE 11:40:50 22° ENE 11:44:39 10° ESE daylight
03 Apr - 13:19:38 10° WNW 13:23:20 20° WSW 13:26:38 10° SSW daylight
04 Apr - 00:04:41 10° S 00:09:47 64° ESE 00:15:24 10° NNE night (unlit)
04 Apr - 12:36:31 10° NW 12:41:22 42° WSW 12:45:46 10° S daylight
04 Apr - 23:23:21 10° S 23:27:49 30° ESE 23:32:44 10° NE night (unlit)
05 Apr - 01:06:40 10° WSW 01:10:27 18° WNW 01:14:10 10° NNW night (unlit)
05 Apr - 11:54:14 10° NNW 11:59:24 85° ENE 12:04:05 10° SSE daylight
05 Apr - 22:43:07 10° SE 22:45:47 15° ESE 22:48:56 10° ENE night (unlit)
06 Apr - 00:23:23 10° SW 00:28:15 37° WNW 00:33:28 10° N night (unlit)
06 Apr - 11:12:36 10° N 11:17:22 38° ENE 11:21:46 10° SE daylight
06 Apr - 12:58:32 10° W 12:59:46 11° WSW 13:00:35 10° WSW daylight
06 Apr - 23:40:58 10° SSW 23:46:11 77° WNW 23:51:55 10° NNE night (unlit)
07 Apr - 10:31:51 10° NNE 10:35:10 18° ENE 10:38:31 10° ESE daylight
07 Apr - 12:13:38 10° NW 12:17:43 24° WSW 12:21:25 10° SSW daylight
07 Apr - 22:59:10 10° S 23:04:12 52° ESE 23:09:45 10° NNE night (unlit)
08 Apr - 00:45:35 10° W 00:47:05 11° WNW 00:48:06 10° NW night (unlit)
08 Apr - 11:30:47 10° NNW 11:35:45 53° WSW 11:40:17 10° S daylight
08 Apr - 22:18:02 10° SSE 22:22:13 25° ESE 22:26:51 10° NE night (unlit)
09 Apr - 00:00:32 10° WSW 00:04:47 23° WNW 00:09:06 10° NNW night (unlit)
09 Apr - 10:48:41 10° NNW 10:53:47 68° ENE 10:58:24 10° SSE daylight
09 Apr - 21:38:28 10° SE 21:40:09 12° ESE 21:42:20 10° E night (unlit)
09 Apr - 23:17:33 10° SW 23:22:37 45° WNW 23:28:06 10° N night (unlit)
